Location: Dehesa de la Cepeda
(40.6574°N, 4.3013°W)
Time: 05:31:46
(UTC+00:00)

Courier 1B Rocket - Pass Details

Date: 30 July 2021
Orbit: 920 x 1202 km, 28.3° (Epoch: 19 September)

Event Time Altitude Azimuth Distance (km) Brightness Sun altitude
Exits shadow 03:20:23 22° 188° (S) 1,937 6.1 -18.0°
Maximum altitude 03:21:41 23° 171° (S) 1,861 6.2 -17.9°
Drops below altitude 10° 03:26:30 10° 120° (ESE) 2,614 7.4 -17.2°
Sets 03:29:35 0° 106° (ESE) 3,548 8.4 -16.8°
